Weather History for Montreal Mirabel, QC

Change the Weather History Date:

Saturday, February 9, 2013

  Actual Average Record
Temperature  
Mean Temperature 8 °F -  
Max Temperature 17 °F 21 °F 35 °F (2005)
Min Temperature 0 °F 3 °F -16 °F (1997)
Degree Days  
Heating Degree Days 56    
Moisture  
Dew Point -0 °F    
Average Humidity 64    
Maximum Humidity 85    
Minimum Humidity 38    
Precipitation  
Precipitation 0.00 in - - ()
Sea Level Pressure  
Sea Level Pressure 30.28 in    
Wind  
Wind Speed 7 mph ()    
Max Wind Speed 13 mph    
Max Gust Speed 29 mph    
Visibility 10.0 miles    
Events Snow    
Averages and records for this station are not official NWS values.
T = Trace of Precipitation, MM = Missing Value Source: Averaged Metar Reports

Daily Weather History Graph

Daily Weather History Graph

Search for Another Location

Airport:

Trip Planner

Search our weather history database for the weather conditions in past years. The results will help you decide how hot, cold, wet, or windy it might be!

Date:

Astronomy

Feb. 09, 2013 Rise Set
Actual Time 7:06 AM EST 5:14 PM EST
Civil Twilight 6:35 AM EST 5:45 PM EST
Nautical Twilight 6:00 AM EST 6:20 PM EST
Astronomical Twilight 5:26 AM EST 6:55 PM EST
Moon 6:16 AM EST (2/9) 4:55 PM EST (2/9)
Length of Visible Light 11h 09m
Length of Day
10h 07m
Waning Crescent, 0% of the Moon is Illuminated
Feb 9
Waning Crescent
Feb 10
New
Feb 17
First Quarter
Feb 25
Full
Mar 4
Last Quarter

Hourly Weather History & Observations

Time (EST) Temp. Windchill Dew Point Humidity Pressure Visibility Wind Dir Wind Speed Gust Speed Precip Events Conditions
12:00 AM 10.4 °F -4.8 °F 5.0 °F 79% 30.18 in 5.0 mi NE 12.7 mph 28.8 mph N/A Snow Light Snow
12:46 AM 10.4 °F -3.3 °F 5.0 °F 79% 30.19 in 25.0 mi NE 10.4 mph 19.6 mph N/A Snow Low Drifting Snow
1:00 AM 10.4 °F -4.8 °F 3.2 °F 73% 30.18 in 25.0 mi NE 12.7 mph 24.2 mph N/A Snow Low Drifting Snow
2:00 AM 10.4 °F -2.4 °F 3.2 °F 73% 30.19 in 25.0 mi NE 9.2 mph 25.3 mph N/A Snow Low Drifting Snow
2:29 AM 10.4 °F -4.8 °F 5.0 °F 79% 30.19 in 20.0 mi NE 12.7 mph 28.8 mph N/A Snow Light Snow
3:00 AM 10.4 °F -3.3 °F 5.0 °F 79% 30.20 in 5.0 mi NE 10.4 mph 17.3 mph N/A Snow Light Snow
4:00 AM 10.4 °F -2.4 °F 5.0 °F 79% 30.21 in 10.0 mi NE 9.2 mph 18.4 mph N/A Snow Light Snow
4:42 AM 10.4 °F -2.4 °F 3.2 °F 73% 30.22 in 25.0 mi NNE 9.2 mph - N/A   Overcast
5:00 AM 10.4 °F -1.5 °F 1.4 °F 67% 30.22 in 25.0 mi NE 8.1 mph - N/A   Overcast
6:00 AM 10.4 °F 2.2 °F -0.4 °F 62% 30.24 in 25.0 mi NNE 4.6 mph - N/A   Overcast
7:00 AM 10.4 °F 0.8 °F -0.4 °F 62% 30.27 in 45.0 mi North 5.8 mph - N/A   Overcast
8:00 AM 8.6 °F -4.7 °F -2.2 °F 62% 30.29 in 45.0 mi North 9.2 mph - N/A   Mostly Cloudy
9:00 AM 8.6 °F -1.3 °F -4.0 °F 57% 30.29 in 45.0 mi North 5.8 mph - N/A   Mostly Cloudy
10:00 AM 10.4 °F -0.4 °F -4.0 °F 52% 30.31 in 45.0 mi North 6.9 mph - N/A   Mostly Cloudy
11:00 AM 12.2 °F 2.9 °F -5.8 °F 45% 30.32 in 45.0 mi North 5.8 mph - N/A   Mostly Cloudy
12:00 PM 14.0 °F - -4.0 °F 45% 30.32 in 45.0 mi SE 2.3 mph - N/A   Mostly Cloudy
1:00 PM 17.6 °F 10.7 °F -4.0 °F 38% 30.31 in 45.0 mi SSW 4.6 mph - N/A   Mostly Cloudy
2:00 PM 17.6 °F 8.2 °F -2.2 °F 42% 30.30 in 45.0 mi SSW 6.9 mph - N/A   Partly Cloudy
3:00 PM 17.6 °F 9.3 °F -0.4 °F 45% 30.30 in 45.0 mi SW 5.8 mph - N/A   Partly Cloudy
4:00 PM 17.6 °F 8.2 °F -0.4 °F 45% 30.31 in 45.0 mi WSW 6.9 mph - N/A   Partly Cloudy
5:00 PM 15.8 °F 8.6 °F -0.4 °F 49% 30.32 in 45.0 mi SW 4.6 mph - N/A   Partly Cloudy
6:00 PM 14.0 °F 3.9 °F -0.4 °F 53% 30.35 in 25.0 mi WSW 6.9 mph - N/A   Clear
7:00 PM 8.6 °F - -0.4 °F 67% 30.36 in 25.0 mi WSW 2.3 mph - N/A   Clear
8:00 PM 3.2 °F -4.2 °F -4.0 °F 72% 30.38 in 25.0 mi West 3.5 mph - N/A   Clear
9:00 PM 1.4 °F -6.2 °F -5.8 °F 72% 30.39 in 25.0 mi West 3.5 mph - N/A   Clear
10:00 PM -0.4 °F - -4.0 °F 85% 30.40 in 25.0 mi Calm Calm - N/A   Clear
11:00 PM -0.4 °F - -4.0 °F 85% 30.41 in 25.0 mi Calm Calm - N/A   Clear